[[{"header":{"parameterUnit":"m.s-1","parameterCategory":1,"la1":30.2992,"la2":30.254,"lo1":-89.0895,"lo2":-89.0443,"dy":0.0025,"dx":0.0025,"nx":19,"ny":19,"refTime":"2026-05-08T09:00:00:Z","depth":0,"parameterNumber":2,"parameterNumberName":"U-component_of_WINDS"},"data":[0,0,0,-3.2143,-3.2145,-3.224,-3.224,-3.2366,-3.2367,0,0,0,0,0,0,0,0,0,0,0,-3.2119,-3.212,-3.2143,-3.2145,-3.224,-3.224,-3.2366,-3.2367,0,0,0,0,0,0,0,0,0,0,0,-3.2119,-3.212,-3.2121,-3.2146,-3.224,-3.224,-3.2365,-3.2292,0,0,0,0,0,0,0,0,0,0,-3.2199,-3.2182,-3.212,-3.2121,-3.2146,-3.224,-3.224,-3.2288,-3.2297,-3.2325,0,-3.2354,0,-3.2363,-3.2376,-3.2376,0,0,0,-3.2141,-3.2175,-3.2197,-3.2121,-3.2147,-3.224,-3.2196,-3.2293,-3.2302,-3.2336,-3.2356,-3.236,-3.2365,-3.2377,-3.2377,-3.256,-3.2561,0,0,-3.2136,-3.2138,-3.219,-3.2203,-3.2191,-3.2193,-3.2199,-3.2298,-3.2319,-3.2356,-3.2363,-3.2367,-3.2378,-3.2379,-3.2559,-3.256,0,0,0,-3.2124,-3.2135,-3.2154,-3.2198,-3.2215,-3.2196,-3.2203,-3.2314,-3.232,-3.2364,-3.2368,-3.2378,-3.238,-3.2558,-3.2559,-3.2612,0,0,0,-3.212,-3.2127,-3.2152,-3.2154,-3.2213,-3.2266,-3.2217,-3.2314,-3.2325,-3.2368,-3.2379,-3.2381,-3.2557,-3.2559,-3.2609,-3.2637,0,0,0,-3.2111,-3.2126,-3.2142,-3.2154,-3.2195,-3.2265,-3.2276,-3.2316,-3.2328,-3.2377,-3.2382,-3.2556,-3.2558,-3.2605,-3.2631,-3.2685,0,0,0,-3.2102,-3.2187,-3.2143,-3.2239,-3.2194,-3.2297,-3.2276,-3.2352,-3.24,-3.2379,-3.2557,-3.2559,-3.2604,-3.2628,-3.2682,-3.2731,-3.2752,0,0,-3.221,-3.22,-3.2257,-3.222,-3.2331,-3.2282,-3.2401,-3.2443,-3.2445,-3.2521,-3.2525,-3.261,-3.2631,-3.2685,-3.287,-3.2886,0,0,0,-3.2291,-3.2332,-3.2361,-3.2408,-3.2443,-3.2474,-3.2498,-3.2513,-3.2578,-3.2485,-3.2644,-3.2657,-3.2688,-3.2711,-3.2726,-3.2752,-3.257,-3.257,-3.257,-3.2447,-3.2446,-3.2539,-3.255,-3.2595,-3.2619,-3.2655,-3.2679,-3.2665,-3.2702,-3.2725,-3.2837,-3.2865,-3.2875,-3.2903,-3.2751,-3.2751,-3.2751,-3.2751,-3.2605,-3.2662,-3.2641,-3.2724,-3.2722,-3.279,-3.2816,-3.2803,-3.2866,-3.282,-3.2848,-3.2798,-3.2894,-3.2918,-3.2755,-3.2755,-3.2754,-3.2754,-3.2753,-3.2707,-3.2734,-3.2752,-3.282,-3.2871,-3.2878,-3.294,-3.2935,-3.2931,-3.2959,-3.2981,-3.2981,-3.2979,-3.297,-3.297,-3.2971,-3.2971,-3.2971,-3.2972,-3.2805,-3.2824,-3.2877,-3.2921,-3.295,-3.2988,-3.3012,-3.304,-3.307,-3.3062,-3.3062,-3.3043,-3.2904,-3.2869,-3.2978,-3.2976,-3.2976,-3.2975,-3.2975,-3.2966,-3.2929,-3.3011,-3.3041,-3.3091,-3.3142,-3.3136,-3.3194,-3.3216,-3.3246,-3.3221,-3.3119,-3.3108,-3.3097,-3.3068,-3.3222,-3.3222,-3.3222,-3.3222,-3.3052,-3.3046,-3.3129,-3.3176,-3.3221,-3.3224,-3.3315,-3.3334,-3.3348,-3.3361,-3.3338,-3.3299,-3.3288,-3.3283,-3.3268,-3.3241,-3.3435,-3.3435,-3.3436,-3.315,-3.3149,-3.3228,-3.3242,-3.3281,-3.3314,-3.34,-3.3453,-3.3461,-3.3444,-3.3371,-3.3362,-3.33,-3.3279,-3.3261,-3.3237,-3.3187,0,0]},{"header":{"parameterUnit":"m.s-1","parameterCategory":1,"la1":30.2992,"la2":30.254,"lo1":-89.0895,"lo2":-89.0443,"dy":0.0025,"dx":0.0025,"nx":19,"ny":19,"refTime":"2026-05-08T09:00:00:Z","depth":0,"parameterNumber":3,"parameterNumberName":"V-component_of_WINDS"},"data":[0,0,0,3.0768,3.0769,3.0807,3.0807,3.0859,3.086,0,0,0,0,0,0,0,0,0,0,0,3.0761,3.0761,3.0768,3.0769,3.0807,3.0807,3.0859,3.086,0,0,0,0,0,0,0,0,0,0,0,3.076,3.0761,3.0762,3.0769,3.0807,3.0807,3.0859,3.0829,0,0,0,0,0,0,0,0,0,0,3.0791,3.0788,3.0761,3.0762,3.0769,3.0807,3.0807,3.0827,3.0831,3.0844,0,3.0858,0,3.086,3.0863,3.0864,0,0,0,3.0766,3.0785,3.0792,3.0762,3.077,3.0807,3.0789,3.0829,3.0833,3.0849,3.0859,3.0861,3.0861,3.0864,3.0864,3.0957,3.0957,0,0,3.0764,3.0769,3.079,3.0795,3.0791,3.0788,3.079,3.0831,3.0842,3.0859,3.0862,3.0862,3.0864,3.0865,3.0956,3.0957,0,0,0,3.076,3.0767,3.0773,3.0793,3.08,3.0789,3.0792,3.084,3.0842,3.0862,3.0862,3.0865,3.0865,3.0956,3.0956,3.099,0,0,0,3.0759,3.0765,3.0773,3.0776,3.0799,3.0821,3.08,3.0839,3.0844,3.0862,3.0865,3.0866,3.0955,3.0956,3.0988,3.1005,0,0,0,3.0757,3.0765,3.0772,3.0776,3.0793,3.082,3.0824,3.084,3.0844,3.0864,3.0866,3.0955,3.0956,3.0986,3.1001,3.1031,0,0,0,3.0756,3.08,3.0772,3.0822,3.0793,3.0841,3.0824,3.0859,3.088,3.0865,3.0955,3.0956,3.0985,3.0999,3.1028,3.1055,3.1068,0,0,3.0815,3.0808,3.0837,3.0813,3.0868,3.0835,3.0895,3.0909,3.0905,3.094,3.0942,3.0989,3.1001,3.103,3.1135,3.1145,0,0,0,3.0857,3.0878,3.0891,3.0913,3.0926,3.0938,3.0943,3.0948,3.0977,3.0924,3.1007,3.1015,3.1031,3.1044,3.1052,3.1066,3.0963,3.0963,3.0962,3.0946,3.0941,3.0989,3.0989,3.101,3.1015,3.1031,3.1039,3.1026,3.1046,3.1056,3.112,3.1136,3.1142,3.1156,3.1071,3.1071,3.1071,3.1071,3.1031,3.1059,3.1044,3.1085,3.1079,3.1112,3.112,3.111,3.114,3.1112,3.1127,3.1096,3.1152,3.1165,3.1074,3.1073,3.1073,3.1073,3.1072,3.1087,3.11,3.1108,3.1139,3.1164,3.1162,3.1192,3.1186,3.1179,3.1194,3.1203,3.1203,3.12,3.1199,3.1199,3.12,3.12,3.12,3.12,3.1143,3.115,3.1177,3.1196,3.121,3.1227,3.1234,3.1247,3.1259,3.1251,3.1252,3.1237,3.116,3.114,3.1204,3.1203,3.1203,3.1202,3.1202,3.1229,3.1209,3.125,3.1264,3.1287,3.1312,3.1304,3.1331,3.134,3.1355,3.1338,3.1283,3.1274,3.1268,3.1251,3.134,3.134,3.134,3.134,3.1276,3.1272,3.1314,3.1336,3.1358,3.1356,3.1402,3.1408,3.1411,3.1417,3.1403,3.1381,3.1375,3.137,3.1361,3.1346,3.1457,3.1457,3.1457,3.1328,3.1327,3.1367,3.1372,3.139,3.1405,3.1448,3.1474,3.1473,3.1462,3.1421,3.1416,3.138,3.1369,3.1355,3.1342,3.1313,0,0]}]]